Location: Bathurst
(33.4193°S, 149.5775°E)
Time: 02:36:22
(UTC+10:00)

A-11 Canister half - Pass Details

Date: 16 June 2021
Orbit: 1513 x 1687 km, 47.2° (Epoch: 28 July)

Event Time Altitude Azimuth Distance (km) Brightness Sun altitude
Rises 21:41:46 0° 240° (WSW) 4,803 12.0 -57.6°
Reaches altitude 10° 21:45:05 10° 232° (SW) 3,842 11.4 -58.3°
Enters shadow 21:46:46 16° 227° (SW) 3,388 11.0 -58.7°
